Location: Newark
(48.8656°N, 2.3211°E)
Time: 07:25:13
(UTC+00:00)

ISS - Visible Passes

Search period start: 25 March 2019 00:00
Search period end: 04 April 2019 00:00
Orbit: 408 x 411 km, 51.6° (Epoch: 25 March)

Date Brightness Start Highest point End Pass type
(mag) Time Alt. Az. Time Alt. Az. Time Alt. Az.
25 Mar -3.9 19:15:55 10° WSW 19:19:13 71° SSE 19:21:38 17° ENE visible
25 Mar -1.7 20:52:41 10° W 20:54:25 27° WNW 20:54:25 27° WNW visible
26 Mar -3.4 20:01:57 10° W 20:05:14 58° N 20:06:02 43° NE visible
27 Mar -3.6 19:11:15 10° WSW 19:14:33 72° NNW 19:17:33 12° ENE visible
27 Mar -2.1 20:48:09 10° WNW 20:50:19 34° NW 20:50:19 34° NW visible
28 Mar -3.1 19:57:26 10° W 20:00:40 50° N 20:01:45 33° NE visible
28 Mar -0.5 21:34:10 10° WNW 21:34:31 12° WNW 21:34:31 12° WNW visible
29 Mar -3.2 19:06:41 10° W 19:09:55 53° N 19:13:08 10° ENE visible
29 Mar -2.6 20:43:29 10° WNW 20:45:54 42° NW 20:45:54 42° NW visible
30 Mar -3.3 19:52:48 10° WNW 19:56:03 53° N 19:57:15 32° ENE visible
30 Mar -0.7 21:29:27 10° WNW 21:30:01 14° WNW 21:30:01 14° WNW visible
31 Mar -3.1 19:02:03 10° WNW 19:05:17 50° N 19:08:32 10° ENE visible
31 Mar -3.0 20:38:44 10° WNW 20:41:21 52° WNW 20:41:21 52° WNW visible
01 Apr -3.7 19:48:02 10° WNW 19:51:22 70° NNE 19:52:40 33° E visible
01 Apr -0.8 21:24:48 10° W 21:25:25 14° W 21:25:25 14° W visible
02 Apr -3.4 18:57:19 10° WNW 19:00:35 57° N 19:03:52 10° E visible
02 Apr -3.0 20:33:59 10° WNW 20:36:44 45° WSW 20:36:44 45° WSW visible
03 Apr -3.8 19:43:13 10° WNW 19:46:31 74° SSW 19:48:04 29° SE visible
03 Apr -0.8 21:20:34 10° W 21:20:50 11° WSW 21:20:50 11° WSW visible
